[[{"header":{"parameterUnit":"m.s-1","parameterCategory":1,"la1":30.2991,"la2":30.254,"lo1":-89.0895,"lo2":-89.0444,"dy":0.0017,"dx":0.0017,"nx":28,"ny":28,"refTime":"2023-11-22T09:00:00:Z","depth":0,"parameterNumber":2,"parameterNumberName":"U-component_of_WINDS"},"data":[0,0,0,0,0,0,0,0,0,0,0,0,0,0,0,0,0,0,0,0,0,0,0,0,0,0,0,0,0,0,0,0,0,0,0,0,0,0,0,0,0,0,0,0,0,0,0,0,0,0,0,0,0,0,0,0,0,0,-0.048,-0.0481,0,-0.0587,-0.0589,-0.059,-0.0578,-0.0577,-0.0575,-0.0573,-0.0688,-0.0693,-0.0698,0,0,0,0,0,0,0,0,0,0,0,0,0,-0.027,-0.0273,-0.048,-0.0481,-0.0482,-0.0587,-0.0589,-0.059,-0.0579,-0.0576,-0.0574,-0.0572,-0.0687,-0.0692,-0.0698,0,0,0,0,0,0,0,0,0,0,0,0,0,-0.0368,-0.0275,-0.048,-0.0489,-0.0491,-0.0587,-0.0589,-0.0591,-0.0579,-0.0576,-0.0574,-0.0571,-0.0685,-0.0692,-0.0699,-0.0793,0,0,-0.072,-0.0723,0,0,0,0,0,0,0,0,-0.0362,-0.0375,-0.0486,-0.0489,-0.0491,-0.0567,-0.0557,-0.0659,-0.058,-0.0546,-0.0573,-0.057,-0.065,-0.066,-0.0686,-0.0799,-0.0804,-0.0721,-0.0725,-0.0728,-0.073,0,0,0,0,0,0,0,-0.0355,-0.0371,-0.0523,-0.0488,-0.0491,-0.049,-0.0501,-0.0576,-0.0611,-0.0549,-0.0548,-0.0561,-0.0651,-0.0679,-0.0689,-0.0805,-0.0721,-0.0727,-0.0731,-0.0734,-0.1003,-0.1006,0,0,0,0,0,0,-0.0345,-0.0365,-0.0519,-0.0526,-0.0419,-0.0496,-0.0508,-0.0545,-0.061,-0.0618,-0.0563,-0.056,-0.0669,-0.068,-0.0693,-0.0809,-0.0728,-0.0735,-0.0739,-0.1,-0.1004,-0.1007,0,0,0,0,0,0,-0.0341,-0.0359,-0.0515,-0.0445,-0.0465,-0.0502,-0.0544,-0.0549,-0.0577,-0.0621,-0.0628,-0.0585,-0.0667,-0.0683,-0.0768,-0.0813,-0.0738,-0.0744,-0.0997,-0.1001,-0.1005,-0.1043,0,0,0,0,0,0,-0.0335,-0.0358,-0.0393,-0.0446,-0.0469,-0.0588,-0.0546,-0.0553,-0.0588,-0.0585,-0.0643,-0.0651,-0.0666,-0.0758,-0.0775,-0.0821,-0.075,-0.0993,-0.0999,-0.1004,-0.1038,-0.1048,-0.1056,0,0,0,0,0,-0.0327,-0.04,-0.0395,-0.0413,-0.0513,-0.059,-0.0603,-0.0618,-0.0592,-0.0629,-0.0657,-0.0649,-0.0805,-0.0767,-0.0786,-0.0835,-0.099,-0.0997,-0.1003,-0.1033,-0.1046,-0.1056,0,0,0,0,0,0,-0.0353,-0.0407,-0.0402,-0.0493,-0.0537,-0.0588,-0.0635,-0.063,-0.0684,-0.0679,-0.0697,-0.071,-0.0797,-0.0824,-0.0781,-0.0931,-0.0894,-0.0905,-0.091,-0.0922,-0.0932,-0.0925,-0.0755,0,0,0,0,0,-0.0369,-0.0425,-0.047,-0.0546,-0.0568,-0.0598,-0.0632,-0.0639,-0.0686,-0.0705,-0.0739,-0.0787,-0.0846,-0.0885,-0.0943,-0.104,-0.1054,-0.1084,-0.1093,-0.1101,-0.1111,-0.1166,-0.1181,-0.1029,-0.1029,-0.1028,0,0,-0.0403,-0.044,-0.0474,-0.0552,-0.0587,-0.0647,-0.0613,-0.0678,-0.0723,-0.0715,-0.0798,-0.0825,-0.0879,-0.0971,-0.1014,-0.0997,-0.1155,-0.1109,-0.1115,-0.1121,-0.1175,-0.1189,-0.1202,-0.1033,-0.1032,-0.1032,0,0,-0.0497,-0.0529,-0.0597,-0.0632,-0.0684,-0.0703,-0.0719,-0.0771,-0.0788,-0.0871,-0.0867,-0.0921,-0.1023,-0.1062,-0.1095,-0.1203,-0.1198,-0.1221,-0.1271,-0.1325,-0.1337,-0.1348,-0.1389,-0.1403,-0.123,-0.123,-0.123,0,-0.0534,-0.0622,-0.0633,-0.0698,-0.0733,-0.0726,-0.0797,-0.0831,-0.09,-0.0925,-0.0904,-0.1033,-0.1068,-0.1171,-0.1197,-0.1223,-0.1244,-0.1216,-0.1334,-0.1345,-0.1355,-0.1395,-0.141,-0.1233,-0.1232,-0.1232,-0.1232,0,-0.0665,-0.0727,-0.0775,-0.0841,-0.0881,-0.0949,-0.0972,-0.1012,-0.1015,-0.1037,-0.1123,-0.1165,-0.1231,-0.1255,-0.126,-0.1359,-0.1347,-0.133,-0.1294,-0.1372,-0.141,-0.1424,-0.1236,-0.1235,-0.1235,-0.1234,0,0,-0.078,-0.085,-0.0868,-0.0898,-0.0955,-0.1003,-0.1071,-0.1134,-0.1169,-0.1216,-0.1275,-0.1361,-0.1346,-0.1383,-0.1392,-0.1439,-0.1524,-0.1417,-0.1418,-0.1437,-0.1639,-0.1653,-0.167,-0.152,-0.1523,-0.1525,-0.1635,0,-0.0881,-0.0999,-0.1011,-0.1118,-0.1176,-0.117,-0.1229,-0.1271,-0.1293,-0.1346,-0.1371,-0.1432,-0.1406,-0.1429,-0.1475,-0.1504,-0.1565,-0.1496,-0.1578,-0.1581,-0.1567,-0.1689,-0.1705,-0.1807,-0.1649,-0.1652,-0.1654,0,-0.1016,-0.1066,-0.1178,-0.1227,-0.1252,-0.1304,-0.1364,-0.1414,-0.1462,-0.1475,-0.1516,-0.1519,-0.1591,-0.1549,-0.1649,-0.1602,-0.1636,-0.1655,-0.1659,-0.167,-0.1624,-0.1706,-0.1839,-0.1855,-0.1676,-0.1674,-0.1673,0,-0.1092,-0.1187,-0.1266,-0.1292,-0.1351,-0.1388,-0.1415,-0.146,-0.1498,-0.155,-0.1575,-0.1634,-0.1668,-0.1715,-0.1735,-0.1703,-0.1835,-0.1795,-0.185,-0.185,-0.1881,-0.1879,-0.2024,-0.1897,-0.1897,-0.1897,-0.1897,0,-0.1205,-0.1275,-0.1301,-0.1351,-0.1429,-0.1442,-0.1519,-0.1544,-0.1585,-0.164,-0.1638,-0.1691,-0.1711,-0.1768,-0.1783,-0.1865,-0.188,-0.1894,-0.1898,-0.1896,-0.1895,-0.1921,-0.1915,-0.1901,-0.19,-0.1899,-0.1899,0,-0.1304,-0.1325,-0.1412,-0.1459,-0.1473,-0.1529,-0.1571,-0.1619,-0.1639,-0.171,-0.1727,-0.176,-0.1826,-0.1849,-0.1929,-0.194,-0.2036,-0.2032,-0.202,-0.2021,-0.2076,-0.2072,-0.2245,-0.227,-0.2124,-0.2126,-0.2127,0,-0.1377,-0.143,-0.1483,-0.1519,-0.1547,-0.1605,-0.1643,-0.1658,-0.1698,-0.1756,-0.1798,-0.1863,-0.1917,-0.2023,-0.2055,-0.2117,-0.2117,-0.2173,-0.2127,-0.2124,-0.2122,-0.2119,-0.2126,-0.2183,-0.2185,-0.2186,-0.2187,0,-0.1504,-0.1512,-0.1565,-0.1623,-0.1668,-0.1714,-0.1759,-0.1789,-0.1811,-0.1856,-0.1923,-0.1964,-0.2045,-0.2111,-0.2175,-0.2204,-0.2201,-0.2201,-0.2218,-0.2218,-0.2209,-0.2217,-0.2047,-0.2198,-0.2197,-0.2196,-0.2195,-0.2195,-0.1595,-0.1642,-0.1687,-0.1747,-0.1782,-0.1824,-0.1872,-0.1898,-0.1953,-0.202,-0.2025,-0.2098,-0.2146,-0.223,-0.2262,-0.232,-0.2305,-0.2328,-0.2335,-0.2341,-0.2347,-0.2197,-0.2332,-0.2331,-0.2331,-0.2331,-0.2331,0,-0.1724,-0.1752,-0.1807,-0.187,-0.1918,-0.1907,-0.1956,-0.1998,-0.2061,-0.2105,-0.2157,-0.2234,-0.2298,-0.2334,-0.2398,-0.2438,-0.2438,-0.2455,-0.2454,-0.2461,-0.2355,-0.2336,-0.2454,-0.2454,-0.2454,-0.2454,-0.2454,-0.2454,-0.1798,-0.1878,-0.1891,-0.1989,-0.2017,-0.2087,-0.2116,-0.2156,-0.2191,-0.2277,-0.2329,-0.2351,-0.2393,-0.246,-0.2518,-0.2527,-0.2553,-0.2571,-0.2579,-0.2481,-0.2468,-0.2456,-0.2438,-0.2576,-0.2576,-0.268,-0.2681,-0.2682]},{"header":{"parameterUnit":"m.s-1","parameterCategory":1,"la1":30.2991,"la2":30.254,"lo1":-89.0895,"lo2":-89.0444,"dy":0.0017,"dx":0.0017,"nx":28,"ny":28,"refTime":"2023-11-22T09:00:00:Z","depth":0,"parameterNumber":3,"parameterNumberName":"V-component_of_WINDS"},"data":[0,0,0,0,0,0,0,0,0,0,0,0,0,0,0,0,0,0,0,0,0,0,0,0,0,0,0,0,0,0,0,0,0,0,0,0,0,0,0,0,0,0,0,0,0,0,0,0,0,0,0,0,0,0,0,0,0,0,-4.2307,-4.2309,0,-4.2442,-4.2443,-4.2445,-4.2377,-4.2374,-4.237,-4.2367,-4.2503,-4.251,-4.2517,0,0,0,0,0,0,0,0,0,0,0,0,0,-4.1989,-4.1995,-4.2307,-4.2309,-4.231,-4.2442,-4.2444,-4.2445,-4.2378,-4.2374,-4.2369,-4.2365,-4.2501,-4.2509,-4.2517,0,0,0,0,0,0,0,0,0,0,0,0,0,-4.2126,-4.1997,-4.2307,-4.2293,-4.2293,-4.2441,-4.2444,-4.2446,-4.2379,-4.2373,-4.2368,-4.2363,-4.2498,-4.2508,-4.2519,-4.2688,0,0,-4.255,-4.2555,0,0,0,0,0,0,0,0,-4.2118,-4.2137,-4.2293,-4.2294,-4.2294,-4.2387,-4.2381,-4.2527,-4.238,-4.2346,-4.2367,-4.2361,-4.2469,-4.2481,-4.2518,-4.2695,-4.2701,-4.2551,-4.2557,-4.2562,-4.2565,0,0,0,0,0,0,0,-4.2109,-4.2131,-4.236,-4.2295,-4.2296,-4.2279,-4.2292,-4.2409,-4.2435,-4.2349,-4.2344,-4.2361,-4.2468,-4.2508,-4.2521,-4.2703,-4.2551,-4.256,-4.2566,-4.2571,-4.3024,-4.303,0,0,0,0,0,0,-4.21,-4.2124,-4.2356,-4.2364,-4.2191,-4.2289,-4.2304,-4.2363,-4.2434,-4.244,-4.2365,-4.2357,-4.2493,-4.2509,-4.2525,-4.2728,-4.2562,-4.2572,-4.2577,-4.3018,-4.3025,-4.3032,0,0,0,0,0,0,-4.2093,-4.2121,-4.2351,-4.2243,-4.2271,-4.23,-4.2366,-4.2368,-4.2408,-4.2447,-4.2451,-4.2402,-4.249,-4.2511,-4.2648,-4.2732,-4.2576,-4.2586,-4.3011,-4.3021,-4.3029,-4.3136,0,0,0,0,0,0,-4.2085,-4.2119,-4.2185,-4.2245,-4.2277,-4.2472,-4.2372,-4.2375,-4.2427,-4.2417,-4.2482,-4.2487,-4.2487,-4.2633,-4.2659,-4.2744,-4.2594,-4.3004,-4.3015,-4.3026,-4.3126,-4.3148,-4.3167,0,0,0,0,0,-4.2073,-4.221,-4.2189,-4.2217,-4.2359,-4.2477,-4.2496,-4.2493,-4.2434,-4.2499,-4.2524,-4.2485,-4.2719,-4.2648,-4.2676,-4.2765,-4.2999,-4.3012,-4.3025,-4.3116,-4.3143,-4.3166,0,0,0,0,0,0,-4.2159,-4.2217,-4.2195,-4.2355,-4.2412,-4.2466,-4.2549,-4.2522,-4.2596,-4.2585,-4.2577,-4.2593,-4.2735,-4.2764,-4.2684,-4.2933,-4.2849,-4.2869,-4.2909,-4.2935,-4.2956,-4.2946,-4.2602,0,0,0,0,0,-4.2196,-4.2288,-4.2334,-4.247,-4.25,-4.252,-4.2571,-4.2564,-4.2622,-4.2646,-4.268,-4.2738,-4.2824,-4.2881,-4.2963,-4.3129,-4.3142,-4.3204,-4.3225,-4.3242,-4.3259,-4.3348,-4.3376,-4.3075,-4.3075,-4.3074,0,0,-4.2274,-4.2318,-4.2376,-4.2489,-4.2532,-4.2626,-4.254,-4.2644,-4.2714,-4.2661,-4.2794,-4.2821,-4.2885,-4.3037,-4.3106,-4.3065,-4.3345,-4.3258,-4.3271,-4.3279,-4.3364,-4.3393,-4.3418,-4.3084,-4.3082,-4.3081,0,0,-4.2465,-4.2508,-4.2626,-4.2671,-4.2738,-4.275,-4.2778,-4.2836,-4.2853,-4.2985,-4.2948,-4.303,-4.3179,-4.3226,-4.3269,-4.3476,-4.3444,-4.3503,-4.3611,-4.3698,-4.3722,-4.3743,-4.3817,-4.3844,-4.352,-4.352,-4.352,0,-4.2554,-4.2696,-4.269,-4.2797,-4.2847,-4.2804,-4.2923,-4.2967,-4.3057,-4.3092,-4.3045,-4.3231,-4.3271,-4.3433,-4.3484,-4.352,-4.3552,-4.3496,-4.3719,-4.374,-4.376,-4.383,-4.3858,-4.3527,-4.3526,-4.3525,-4.3524,0,-4.2801,-4.29,-4.2987,-4.3075,-4.3135,-4.3248,-4.3258,-4.3319,-4.3307,-4.3323,-4.3458,-4.3504,-4.3594,-4.3632,-4.3621,-4.3793,-4.3766,-4.3719,-4.3635,-4.3795,-4.3861,-4.3888,-4.3536,-4.3534,-4.3532,-4.353,0,0,-4.3051,-4.3134,-4.3166,-4.3205,-4.3275,-4.3351,-4.346,-4.3549,-4.3601,-4.3664,-4.3756,-4.3882,-4.3839,-4.3889,-4.3882,-4.3958,-4.4119,-4.3902,-4.3904,-4.3941,-4.4312,-4.4346,-4.4378,-4.4098,-4.4103,-4.4107,-4.4306,0,-4.3246,-4.344,-4.3437,-4.3616,-4.3706,-4.3666,-4.3762,-4.3815,-4.3833,-4.3911,-4.393,-4.402,-4.3957,-4.3987,-4.4061,-4.4084,-4.4194,-4.407,-4.4182,-4.4186,-4.4168,-4.4412,-4.445,-4.4636,-4.4332,-4.4336,-4.4339,0,-4.3501,-4.3573,-4.3761,-4.3817,-4.3854,-4.3941,-4.4021,-4.4097,-4.4155,-4.4163,-4.4217,-4.4199,-4.4309,-4.4222,-4.4373,-4.4289,-4.4335,-4.4353,-4.436,-4.4371,-4.4273,-4.443,-4.4695,-4.4723,-4.438,-4.4377,-4.4374,0,-4.3664,-4.3808,-4.3938,-4.3973,-4.4042,-4.4103,-4.4134,-4.4188,-4.4241,-4.431,-4.4344,-4.4426,-4.4471,-4.4534,-4.4537,-4.4473,-4.469,-4.4603,-4.4699,-4.4699,-4.4747,-4.4744,-4.5024,-4.4776,-4.4776,-4.4775,-4.4775,0,-4.3884,-4.4,-4.4013,-4.4093,-4.4222,-4.4217,-4.4345,-4.437,-4.4418,-4.4502,-4.4472,-4.4551,-4.455,-4.4631,-4.4634,-4.4759,-4.4779,-4.4788,-4.4787,-4.4791,-4.479,-4.4821,-4.4809,-4.4783,-4.4781,-4.478,-4.4778,0,-4.4088,-4.4101,-4.4241,-4.4294,-4.431,-4.4403,-4.4448,-4.4524,-4.4539,-4.4646,-4.467,-4.4694,-4.4787,-4.4796,-4.4904,-4.4906,-4.5057,-4.5042,-4.5038,-4.5036,-4.5131,-4.5122,-4.5441,-4.5482,-4.5208,-4.521,-4.5212,0,-4.4228,-4.4316,-4.4379,-4.4433,-4.4468,-4.4556,-4.461,-4.4608,-4.4665,-4.4738,-4.4805,-4.4896,-4.4968,-4.5118,-4.5144,-4.5226,-4.5214,-4.5319,-4.5226,-4.5226,-4.5215,-4.521,-4.5219,-4.5338,-4.5341,-4.5343,-4.5345,0,-4.4474,-4.4476,-4.4555,-4.4636,-4.4701,-4.4765,-4.4825,-4.4871,-4.4876,-4.4942,-4.5037,-4.5093,-4.5203,-4.5293,-4.5374,-4.5404,-4.5377,-4.5375,-4.5401,-4.5406,-4.54,-4.5405,-4.5088,-4.5367,-4.5365,-4.5364,-4.5362,-4.5362,-4.465,-4.4727,-4.4783,-4.4872,-4.4916,-4.4973,-4.5047,-4.5071,-4.515,-4.524,-4.5234,-4.5339,-4.5394,-4.5499,-4.5536,-4.5618,-4.5582,-4.5621,-4.563,-4.564,-4.565,-4.5387,-4.5632,-4.5631,-4.5631,-4.563,-4.563,0,-4.4895,-4.4929,-4.501,-4.5095,-4.5165,-4.5132,-4.5196,-4.5256,-4.5349,-4.5403,-4.5474,-4.5583,-4.567,-4.5702,-4.5787,-4.5845,-4.5835,-4.5868,-4.5864,-4.5871,-4.5677,-4.5646,-4.5875,-4.5875,-4.5875,-4.5875,-4.5875,-4.5875,-4.503,-4.5158,-4.5167,-4.5316,-4.5348,-4.5452,-4.5491,-4.5543,-4.5585,-4.5709,-4.578,-4.5801,-4.5846,-4.5933,-4.6011,-4.6018,-4.605,-4.609,-4.6091,-4.5909,-4.5885,-4.5861,-4.5832,-4.6097,-4.6097,-4.6278,-4.628,-4.6281]}]]